| time (UTC) | temp F | wind direction | speed MPH | gust MPH | rain 1hr in | rain 24hr in | rain mn in | humidity % | barometer mb |
| 20260503183029 | 61 | 202 | 2.0 | 7.0 | 0.00 | 0.00 | 0.00 | 65 | 1014.7 |
| 20260503181527 | 60 | 176 | 2.0 | 7.0 | 0.00 | 0.00 | 0.00 | 67 | 1014.8 |
| 20260503180029 | 59 | 190 | 4.0 | 8.0 | 0.00 | 0.00 | 0.00 | 70 | 1014.9 |
| 20260503174520 | 60 | 221 | 3.0 | 12.0 | 0.00 | 0.00 | 0.00 | 70 | 1014.8 |
| 20260503173037 | 61 | 181 | 4.0 | 8.0 | 0.00 | 0.00 | 0.00 | 69 | 1014.6 |
| 20260503171521 | 61 | 184 | 3.0 | 7.0 | 0.00 | 0.00 | 0.00 | 69 | 1014.4 |
| 20260503140113 | 55 | 144 | 0.0 | 4.0 | 0.00 | 0.00 | 0.00 | 81 | 1013.5 |
| 20260503081545 | 56 | 15 | 0.0 | 4.0 | 0.00 | 0.00 | 0.00 | 78 | 1013.1 |
| 20260503071541 | 56 | 28 | 2.0 | 4.0 | 0.00 | 0.00 | 0.00 | 77 | 1013.4 |
| 20260503054535 | 57 | 9 | 1.0 | 6.0 | 0.00 | 0.00 | 0.00 | 76 | 1013.7 |
| 20260503053031 | 57 | 9 | 1.0 | 6.0 | 0.00 | 0.00 | 0.00 | 76 | 1013.9 |
| 20260503051531 | 57 | 350 | 0.0 | 8.0 | 0.00 | 0.00 | 0.00 | 77 | 1014.0 |
| 20260503050028 | 57 | 26 | 2.0 | 6.0 | 0.00 | 0.00 | 0.00 | 76 | 1013.8 |
| 20260503044529 | 57 | 321 | 2.0 | 10.0 | 0.00 | 0.00 | 0.00 | 76 | 1013.9 |
| 20260503043026 | 57 | 282 | 2.0 | 11.0 | 0.00 | 0.00 | 0.00 | 77 | 1013.7 |
| 20260503041526 | 57 | 11 | 3.0 | 6.0 | 0.00 | 0.00 | 0.00 | 76 | 1013.5 |
| 20260503040100 | 57 | 13 | 4.0 | 9.0 | 0.00 | 0.00 | 0.00 | 76 | 1013.3 |
| 20260503034555 | 58 | 14 | 3.0 | 9.0 | 0.00 | 0.00 | 0.00 | 76 | 1013.1 |
| 20260503033105 | 58 | 9 | 2.0 | 9.0 | 0.00 | 0.00 | 0.00 | 76 | 1013.1 |
| 20260503031552 | 58 | 9 | 2.0 | 10.0 | 0.00 | 0.00 | 0.00 | 76 | 1013.0 |
| 20260503030052 | 58 | 355 | 1.0 | 12.0 | 0.00 | 0.00 | 0.00 | 76 | 1012.9 |
| 20260503024554 | 59 | 314 | 4.0 | 8.0 | 0.00 | 0.00 | 0.00 | 75 | 1012.7 |
| 20260503023039 | 59 | 331 | 2.0 | 8.0 | 0.00 | 0.00 | 0.00 | 74 | 1012.5 |
| 20260503021521 | 60 | 9 | 2.0 | 10.0 | 0.00 | 0.00 | 0.00 | 74 | 1012.4 |
| 20260503020049 | 61 | 11 | 5.0 | 13.0 | 0.00 | 0.00 | 0.00 | 73 | 1012.4 |
| 20260503014549 | 61 | 9 | 3.0 | 9.0 | 0.00 | 0.00 | 0.00 | 72 | 1012.5 |
| 20260503013046 | 62 | 345 | 4.0 | 15.0 | 0.00 | 0.00 | 0.00 | 72 | 1012.5 |
| 20260503011559 | 62 | 36 | 4.0 | 11.0 | 0.00 | 0.00 | 0.00 | 71 | 1012.6 |
| 20260503010053 | 63 | 329 | 5.0 | 12.0 | 0.00 | 0.00 | 0.00 | 70 | 1012.6 |
| 20260503004544 | 63 | 316 | 3.0 | 10.0 | 0.00 | 0.00 | 0.00 | 70 | 1012.5 |
| 20260503003057 | 64 | 9 | 5.0 | 11.0 | 0.00 | 0.00 | 0.00 | 69 | 1012.5 |
| 20260503001540 | 65 | 9 | 3.0 | 10.0 | 0.00 | 0.00 | 0.00 | 67 | 1012.4 |
| 20260503000058 | 66 | 344 | 6.0 | 12.0 | 0.00 | 0.00 | 0.00 | 65 | 1012.6 |
| 20260502234543 | 67 | 27 | 4.0 | 15.0 | 0.00 | 0.00 | 0.00 | 64 | 1012.6 |
| 20260502233039 | 68 | 49 | 6.0 | 15.0 | 0.00 | 0.00 | 0.00 | 63 | 1012.6 |
| 20260502231537 | 69 | 293 | 5.0 | 13.0 | 0.00 | 0.00 | 0.00 | 61 | 1012.7 |
| 20260502230033 | 70 | 70 | 1.0 | 11.0 | 0.00 | 0.00 | 0.00 | 61 | 1012.8 |
| 20260502224531 | 70 | 9 | 4.0 | 12.0 | 0.00 | 0.00 | 0.00 | 60 | 1012.9 |
| 20260502223029 | 71 | 348 | 2.0 | 12.0 | 0.00 | 0.00 | 0.00 | 60 | 1013.1 |
| 20260502221526 | 71 | 5 | 4.0 | 10.0 | 0.00 | 0.00 | 0.00 | 60 | 1013.4 |
| 20260502220025 | 71 | 76 | 4.0 | 11.0 | 0.00 | 0.00 | 0.00 | 61 | 1013.5 |
| 20260502214524 | 71 | 346 | 2.0 | 11.0 | 0.00 | 0.00 | 0.00 | 60 | 1013.6 |
| 20260502213028 | 72 | 22 | 1.0 | 8.0 | 0.00 | 0.00 | 0.00 | 60 | 1013.6 |
| 20260502211555 | 71 | 304 | 2.0 | 10.0 | 0.00 | 0.00 | 0.00 | 61 | 1013.7 |
| 20260502210051 | 71 | 61 | 1.0 | 6.0 | 0.00 | 0.00 | 0.00 | 59 | 1013.9 |
| 20260502204546 | 70 | 193 | 3.0 | 6.0 | 0.00 | 0.00 | 0.00 | 60 | 1014.1 |
| 20260502203042 | 69 | 148 | 2.0 | 7.0 | 0.00 | 0.00 | 0.00 | 62 | 1014.3 |
| 20260502201540 | 68 | 169 | 1.0 | 8.0 | 0.00 | 0.00 | 0.00 | 64 | 1014.7 |
| 20260502200043 | 67 | 57 | 1.0 | 6.0 | 0.00 | 0.00 | 0.00 | 66 | 1015.0 |
| 20260502194534 | 66 | 44 | 1.0 | 5.0 | 0.00 | 0.00 | 0.00 | 68 | 1015.1 |
| 20260502193032 | 66 | 68 | 0.0 | 4.0 | 0.00 | 0.00 | 0.00 | 68 | 1015.3 |
| 20260502191527 | 64 | 71 | 0.0 | 4.0 | 0.00 | 0.00 | 0.00 | 71 | 1015.4 |
| 20260502190023 | 62 | 182 | 1.0 | 4.0 | 0.00 | 0.00 | 0.00 | 74 | 1015.5 |
| 20260502184527 | 61 | 110 | 4.0 | 9.0 | 0.00 | 0.00 | 0.00 | 75 | 1015.6 |